GFSNIL_sfc_rhum_255.txt.gz
RH
58 65 65 65 69 73 72 72 70 74 73 73 75 75 75 79 90 87 92 92 91 84
64 66 69 64 65 71 68 66 62 71 76 77 78 78 79 80 88 91 93 94 90 86
68 69 70 71 72 68 65 62 65 69 72 77 79 79 82 83 80 90 90 90 88 85
65 66 68 73 70 70 72 67 66 64 69 74 78 82 85 86 82 89 89 86 86 84
72 70 71 70 69 68 70 70 72 68 68 72 75 81 88 89 84 84 89 87 86 82
69 75 78 76 70 66 68 68 68 70 73 72 74 79 83 86 87 85 89 87 88 83
68 68 72 74 74 72 68 70 69 68 69 73 74 77 80 79 87 87 92 92 89 87
70 67 66 67 70 74 75 72 69 70 68 70 74 74 83 82 87 92 90 85 82 84
66 70 70 69 69 71 75 76 74 74 73 74 71 78 84 92 90 89 92 84 86 87
66 68 69 70 70 73 76 76 79 76 73 75 74 80 89 93 90 90 90 91 88 88
67 68 68 70 74 76 76 76 78 75 72 76 73 80 91 96 95 91 91 88 91 88
69 75 73 77 77 77 81 78 76 74 76 78 79 80 92 96 96 91 90 86 89 90
80 84 89 84 84 80 82 82 75 77 78 81 83 85 97 96 94 92 95 94 92 96
80 90 88 87 85 86 88 89 89 86 83 90 93 91 97 97 90 89 97 98 98 95

GFSNIL_sfc_rhum_261.txt.gz
RH
39 42 43 43 44 45 45 43 39 39 39 39 38 39 41 46 52 56 64 75 76 79
44 47 50 45 44 46 44 42 42 42 42 42 42 42 43 44 48 51 60 71 76 78
51 52 53 54 57 53 49 49 49 49 47 46 46 44 44 46 48 53 58 61 68 73
49 51 54 59 57 58 59 55 53 51 50 49 48 47 48 47 47 50 54 58 63 67
59 58 57 56 57 57 59 59 59 55 53 51 50 50 51 52 49 50 52 56 61 64
55 63 67 64 58 56 58 58 58 58 59 55 55 53 52 52 51 52 52 56 64 66
55 56 60 63 64 62 58 60 60 58 59 60 56 55 54 53 55 54 53 59 64 64
61 57 56 58 61 64 65 63 61 62 60 60 59 54 58 58 60 60 60 62 61 64
57 61 61 60 61 62 65 66 65 66 66 68 58 66 67 63 63 63 63 64 60 62
58 58 60 60 60 64 66 66 69 67 65 66 64 69 69 68 61 67 68 63 63 64
59 60 61 65 70 71 71 75 77 77 72 72 65 70 68 69 66 69 68 64 61 68
63 67 72 78 75 73 75 81 82 76 76 77 72 72 70 68 72 77 71 65 68 66
70 80 88 84 87 82 87 90 86 88 80 77 74 74 71 69 72 81 74 72 64 71
78 90 90 91 88 89 92 92 91 90 87 83 71 67 74 72 73 85 79 76 69 67

GFSNIL_sfc_rhum_267.txt.gz
RH
55 58 58 56 57 58 58 56 53 53 53 52 50 50 50 53 54 52 57 57 59 61
55 57 59 56 55 58 56 52 52 54 56 55 56 55 55 57 56 55 56 58 60 60
58 59 57 57 60 58 57 57 57 58 58 59 59 59 59 60 58 59 59 56 59 59
56 56 58 61 60 60 61 60 60 60 61 61 61 61 62 62 62 63 61 59 60 60
60 60 60 60 60 61 63 63 64 62 62 62 62 62 64 66 63 65 64 62 62 61
59 66 70 68 63 62 63 63 64 64 66 64 64 64 64 63 64 65 65 64 64 63
61 61 64 67 68 66 64 65 66 64 64 65 64 63 64 64 67 66 64 66 65 63
64 62 62 63 64 67 69 67 67 67 67 67 66 61 64 65 68 69 68 67 66 66
61 63 64 64 64 66 69 70 70 71 72 72 64 72 73 70 74 88 86 74 67 64
61 63 65 66 68 69 71 72 77 77 76 78 73 76 76 75 71 88 91 86 81 73
64 67 68 70 75 74 72 75 77 80 81 82 77 78 75 76 76 91 91 86 77 79
68 76 77 80 78 79 83 86 83 80 82 87 84 80 78 80 92 94 91 81 78 72
74 79 87 83 85 84 88 90 86 82 78 83 91 90 91 91 92 95 89 79 74 77
77 82 84 87 88 90 91 91 87 81 84 83 83 94 97 97 95 94 91 81 75 73

GFSNIL_sfc_rhum_270.txt.gz
RH
62 63 61 58 59 60 60 59 56 56 55 54 53 54 55 59 60 58 63 61 61 60
58 56 60 58 56 59 57 53 53 55 57 57 57 58 58 62 62 60 62 64 64 63
59 61 59 59 61 60 58 58 58 59 59 60 60 60 61 63 63 64 65 62 64 64
58 57 59 61 61 61 62 62 63 63 63 64 64 63 64 64 65 67 68 65 66 65
62 61 61 61 61 62 65 65 66 65 66 65 65 64 66 68 65 65 70 68 68 68
60 68 72 69 64 63 65 66 66 65 68 66 66 66 66 67 68 68 68 68 69 70
62 62 64 66 67 66 65 66 67 66 68 68 68 66 67 66 69 70 67 68 68 68
64 62 62 62 64 66 68 67 68 69 68 68 67 63 68 69 75 73 70 69 67 67
60 63 64 64 65 67 70 72 71 72 71 72 63 73 74 72 80 91 91 83 69 66
61 63 66 67 68 72 73 73 77 75 73 73 69 76 74 77 81 92 92 86 82 84
65 68 69 73 74 74 73 77 80 81 82 85 82 81 78 81 88 94 92 87 79 76
71 78 79 80 78 76 80 83 81 81 90 93 80 75 76 80 94 94 91 85 82 80
77 81 87 84 83 79 83 91 87 86 82 78 85 85 83 87 93 96 92 84 79 77
78 85 84 85 84 86 92 90 90 85 83 85 91 93 92 91 92 94 93 95 89 83